Starlink 33782

operational
NORAD ID: 64332 Int'l Des: 2025-124 Owner: SPXS Country: US Constellation: starlink
LEOCIRCULAR

About Starlink 33782

Description loading...

Live Position

Loading 3D Globe...

Upcoming Passes

Altitude History

Altitude vs Time

uPlot chart will show altitude changes over time

Two-Line Element Set

1 64332U 25124R 25352.36138913 .00018724 00000-0 68806-3 0 9996
2 64332 42.9991 220.8937 0001314 267.9328 92.1373 15.27587269 29346
Epoch: Dec 18, 2025 • Age: 14 hours

Current Status

Altitude 494.0 km
Velocity 7.62 km/s
Sub-Earth Point -39.73°S, 90.01°E
Launch Date Jun 10, 2025
Age 0.5 years
Type internet

Technical Details

Classification Payload
Mass 575.00 kg
Dry Mass 530.00 kg
Total Mass 575.00 kg
Length 0.30 m
Diameter 4.10 m
Span 29.00 m
Shape Box + pan
Manufacturer SPXS
Bus Type Starlink V2MO
Phase Status In Orbit
Owner/State SPXS/US

Large Constellations

Loading constellations...